World > North America > United States > New York > Brookfield  

Brookfield, NY Hourly Weather Updates

Feedback E-mail the Weather

Quick Clicks

Brookfield, NY Weather Maps

°F °C°F °C
Brookfield Weather Map
UTC Time: 4/20/2024, 23:01
Your Time:

Brookfield, NY Regional Weather

Expires:202404202300;;094662
ASUS41 KBGM 202210
RWRBGM

REGIONAL WEATHER ROUNDUP
NATIONAL WEATHER SERVICE BINGHAMTON NY
600 PM EDT SAT APR 20 2024

Note: "fair" indicates few or no clouds below 12,000 feet with no
significant weather and/or obstructions to visibility.

* = Station(s) that does not report precipitation, such as rain, 
snow, etc, also no thunder or fog.


NYZ009-015>018-022>025-036-037-044>046-055>057-062-202300
...Central New York...
  
CITY           SKY/WX    TMP DP  RH WIND       PRES   REMARKS
Binghamton     MOSUNNY   45  29  53 NW15G26   29.96R                  
Cortland       CLOUDY    41  27  56 W9G21     30.00S                  
Dansville      CLOUDY    46  23  40 VRB6G20   30.05S                  
Elmira         PTSUNNY   47  23  38 NW16G26   30.02R                  
Endicott       MOCLDY    46  27  46 NW14G25   29.99                   
Ithaca         CLOUDY    43  23  45 W15G28    30.02R                  
Hamilton       PTSUNNY   43  25  49 W9G22     29.98R                  
Monticello     NOT AVBL                                               
Norwich        PTSUNNY   43  30  61 N13G23    30.01S                  
Oneonta        CLOUDY    39  30  70 W17G23    29.94R WCI  30          
Penn Yan       CLOUDY    43  22  43 W12G23    30.03R                  
Rome           CLOUDY    44  29  55 W18G26    29.99R                  
Seneca Falls   CLOUDY    43  27  52 NW16G24   30.04R                  
Sidney         MOCLDY    45  30  57 NW16G26   29.98S                  
Skaneateles    PTSUNNY   41  32  70 W8        30.01R                  
Syracuse       PTSUNNY   46  31  55 W15G25    30.01R                  
$$
 

SKY/WX - Weather  TMP - Temperature  DP - Dew Point  RH - Humidity
WIND - Wind Direction/Speed PRES - Barometric Pressure VSB - Visibility
WCI - Wind Chill Index E13G22 Wind - East Wind 13 mph/Gusts of 22 mph

Trending Headlines

Trending Entertainment Headlines

Brookfield Radar Loop

Use the map search tool if you want to place a location marker on the radar map...

Brookfield Quick Facts

National Two Day Weather Forecast


E-mail the Brookfield Weather Forecast

Voice your opinion or tell us about page issues...